User: anonymous   Login
Location: Passo di Treia
(43.2833°N, 13.3333°E)
Time: 06:39:29
(UTC+00:00)
Language:

Cosmos 1417 Rocket - Orbit

View from above orbital plane
View from above orbital plane
View from above satellite
View from above satellite

Ground track
Ground track

The orbit data is extracted from the following two-line orbital elements,

1 13618U 82102B   20049.37302351 +.00000021 +00000-0 +58877-5 0  9994
2 13618 082.9690 136.8459 0030430 279.9408 149.5470 13.76757563875370
Epoch (UTC): 18 February 2020 08:57:09
Eccentricity: 0.0030430
inclination: 82.9690°
perigee height: 953 km
apogee height: 998 km
right ascension of ascending node: 136.8459°
argument of perigee: 279.9408°
revolutions per day: 13.76757563
mean anomaly at epoch: 149.5470°
orbit number at epoch: 87537

The dashed part of the orbit path shows where the satellite is in the earth's shadow,  

DLR